When you browse on this site, cookies collect data to enhance your experience and personalize the content and advertising you see.
Visit our Privacy Policy to learn more. By continuing to use the site, you agree to this use of cookies and data.
  • In Spain
  • List of Countries
  • For 7 days
  • Water Temperature
  • Satellite Maps
  • Weather Map
  • Weather Widgets
  • user-avatar
    Login

    Hourly Weather Donec

    Today, 20 July, Saturday

    Time Temperature Precipitation Wind Pressure Humidity
    00:00 +14°C° 0 mm 3 mps 738 mmHg 79%
    01:00 +14°C° 0 mm 3 mps 738 mmHg 80%
    02:00 +14°C° 0 mm 4 mps 738 mmHg 82%
    03:00 +14°C° 0.1 mm 4 mps 738 mmHg 84%
    04:00 +13°C° 0.1 mm 4 mps 739 mmHg 87%
    05:00 +13°C° 0.1 mm 4 mps 739 mmHg 89%
    06:00 +14°C° 0 mm 4 mps 739 mmHg 84%
    07:00 +17°C° 0 mm 4 mps 740 mmHg 79%
    08:00 +18°C° 0 mm 4 mps 740 mmHg 73%
    09:00 +18°C° 0 mm 4 mps 740 mmHg 71%
    10:00 +19°C° 0 mm 4 mps 740 mmHg 70%
    11:00 +19°C° 0 mm 4 mps 741 mmHg 69%
    12:00 +20°C° 0.1 mm 4 mps 741 mmHg 67%
    13:00 +21°C° 0.1 mm 4 mps 741 mmHg 66%
    14:00 +22°C° 0 mm 4 mps 741 mmHg 67%
    15:00 +22°C° 0.3 mm 4 mps 741 mmHg 67%
    16:00 +22°C° 0.3 mm 4 mps 741 mmHg 68%
    17:00 +22°C° 0.3 mm 4 mps 741 mmHg 68%
    18:00 +20°C° 0 mm 3 mps 741 mmHg 72%
    19:00 +18°C° 0 mm 3 mps 741 mmHg 76%
    20:00 +17°C° 0 mm 3 mps 741 mmHg 79%
    21:00 +16°C° 0 mm 2 mps 741 mmHg 81%
    22:00 +14°C° 0 mm 2 mps 741 mmHg 83%
    23:00 +13°C° 0 mm 2 mps 742 mmHg 85%

    Tomorrow, 21 July, Sunday

    Time Temperature Precipitation Wind Pressure Humidity
    00:00 +13°C° 0 mm 2 mps 742 mmHg 87%
    01:00 +13°C° 0 mm 2 mps 742 mmHg 89%
    02:00 +12°C° 0 mm 2 mps 742 mmHg 91%
    03:00 +13°C° 0 mm 2 mps 742 mmHg 91%
    04:00 +13°C° 0 mm 1 mps 742 mmHg 92%
    05:00 +13°C° 0 mm 1 mps 743 mmHg 92%
    06:00 +15°C° 0 mm 1 mps 743 mmHg 86%
    07:00 +18°C° 0 mm 1 mps 743 mmHg 79%
    08:00 +19°C° 0 mm 2 mps 743 mmHg 73%
    09:00 +21°C° 0 mm 2 mps 743 mmHg 68%
    10:00 +23°C° 0 mm 2 mps 743 mmHg 63%
    11:00 +24°C° 0 mm 2 mps 743 mmHg 57%
    12:00 +24°C° 0.2 mm 2 mps 743 mmHg 58%
    13:00 +25°C° 0.2 mm 3 mps 743 mmHg 58%
    14:00 +25°C° 0.2 mm 3 mps 743 mmHg 58%
    15:00 +24°C° 0.4 mm 3 mps 743 mmHg 64%
    16:00 +24°C° 0.4 mm 2 mps 743 mmHg 69%
    17:00 +23°C° 0.4 mm 2 mps 743 mmHg 75%
    18:00 +22°C° 0.1 mm 1 mps 742 mmHg 80%
    19:00 +20°C° 0.1 mm 1 mps 742 mmHg 85%
    20:00 +16°C° 0.1 mm 0 mps 742 mmHg 90%
    21:00 +16°C° 0 mm 0 mps 742 mmHg 91%
    22:00 +15°C° 0 mm 0 mps 742 mmHg 91%
    23:00 +14°C° 0 mm 0 mps 742 mmHg 91%

    Day after tomorrow, 22 July, Monday

    Time Temperature Precipitation Wind Pressure Humidity
    00:00 +14°C° 0 mm 0 mps 742 mmHg 91%
    01:00 +14°C° 0 mm 0 mps 742 mmHg 92%
    02:00 +13°C° 0 mm 0 mps 742 mmHg 92%
    03:00 +14°C° 0 mm 0 mps 742 mmHg 91%
    04:00 +14°C° 0 mm 0 mps 742 mmHg 91%
    05:00 +15°C° 0 mm 1 mps 742 mmHg 91%
    06:00 +18°C° 0 mm 1 mps 742 mmHg 86%
    07:00 +20°C° 0 mm 1 mps 741 mmHg 81%
    08:00 +21°C° 0 mm 1 mps 741 mmHg 76%
    09:00 +23°C° 0 mm 1 mps 741 mmHg 69%
    10:00 +24°C° 0 mm 2 mps 741 mmHg 63%
    11:00 +25°C° 0 mm 2 mps 741 mmHg 56%
    12:00 +24°C° 0.4 mm 2 mps 741 mmHg 63%
    13:00 +23°C° 0.4 mm 2 mps 740 mmHg 70%
    14:00 +21°C° 0.4 mm 3 mps 740 mmHg 78%
    15:00 +20°C° 0.6 mm 2 mps 740 mmHg 84%
    16:00 +20°C° 0.6 mm 1 mps 740 mmHg 90%
    17:00 +18°C° 0.6 mm 1 mps 740 mmHg 96%
    18:00 +18°C° 0.1 mm 1 mps 739 mmHg 96%
    19:00 +18°C° 0.1 mm 1 mps 739 mmHg 96%
    20:00 +16°C° 0.1 mm 1 mps 739 mmHg 96%
    21:00 +16°C° 0 mm 1 mps 739 mmHg 97%
    22:00 +16°C° 0 mm 1 mps 739 mmHg 97%
    23:00 +16°C° 0 mm 1 mps 739 mmHg 97%

    23 July, Tuesday

    Time Temperature Precipitation Wind Pressure Humidity
    00:00 +16°C° 0 mm 1 mps 739 mmHg 97%
    01:00 +16°C° 0 mm 1 mps 739 mmHg 98%
    02:00 +16°C° 0 mm 1 mps 738 mmHg 98%
    03:00 +16°C° 0 mm 1 mps 738 mmHg 97%
    04:00 +16°C° 0 mm 1 mps 738 mmHg 97%
    05:00 +16°C° 0 mm 1 mps 738 mmHg 97%
    06:00 +16°C° 0.2 mm 1 mps 738 mmHg 96%
    07:00 +16°C° 0.2 mm 1 mps 738 mmHg 96%
    08:00 +16°C° 0.2 mm 1 mps 738 mmHg 95%
    09:00 +17°C° 0.6 mm 2 mps 738 mmHg 95%
    10:00 +17°C° 0.6 mm 2 mps 738 mmHg 95%
    11:00 +17°C° 0.6 mm 3 mps 739 mmHg 95%
    12:00 +17°C° 0.1 mm 3 mps 739 mmHg 95%
    13:00 +17°C° 0.1 mm 3 mps 739 mmHg 94%
    14:00 +16°C° 0.1 mm 3 mps 739 mmHg 93%
    15:00 +16°C° 0.2 mm 3 mps 739 mmHg 94%
    16:00 +16°C° 0.2 mm 3 mps 739 mmHg 95%
    17:00 +16°C° 0.2 mm 3 mps 739 mmHg 96%
    18:00 +16°C° 0 mm 3 mps 739 mmHg 95%
    19:00 +16°C° 0 mm 3 mps 739 mmHg 94%
    20:00 +16°C° 0 mm 3 mps 739 mmHg 94%
    21:00 +16°C° 0 mm 3 mps 739 mmHg 94%
    22:00 +16°C° 0 mm 3 mps 740 mmHg 94%
    23:00 +15°C° 0 mm 2 mps 740 mmHg 94%

    24 July, Wednesday

    Time Temperature Precipitation Wind Pressure Humidity
    00:00 +15°C° 0 mm 2 mps 740 mmHg 94%
    01:00 +14°C° 0 mm 3 mps 740 mmHg 94%
    02:00 +14°C° 0 mm 3 mps 740 mmHg 94%
    03:00 +14°C° 0 mm 3 mps 740 mmHg 93%
    04:00 +14°C° 0 mm 2 mps 740 mmHg 93%
    05:00 +14°C° 0 mm 2 mps 740 mmHg 93%
    06:00 +16°C° 0 mm 2 mps 740 mmHg 86%
    07:00 +18°C° 0 mm 2 mps 741 mmHg 78%
    08:00 +20°C° 0 mm 2 mps 741 mmHg 70%
    09:00 +21°C° 0 mm 3 mps 741 mmHg 64%
    10:00 +24°C° 0 mm 3 mps 741 mmHg 57%
    11:00 +25°C° 0 mm 3 mps 742 mmHg 51%
    12:00 +25°C° 0 mm 3 mps 742 mmHg 50%
    13:00 +26°C° 0 mm 3 mps 742 mmHg 48%
    14:00 +26°C° 0 mm 3 mps 742 mmHg 47%
    15:00 +26°C° 0 mm 3 mps 742 mmHg 51%
    16:00 +25°C° 0 mm 3 mps 742 mmHg 55%
    17:00 +25°C° 0 mm 2 mps 742 mmHg 59%
    18:00 +23°C° 0 mm 2 mps 742 mmHg 67%
    19:00 +20°C° 0 mm 2 mps 742 mmHg 75%
    20:00 +19°C° 0 mm 1 mps 742 mmHg 83%
    21:00 +18°C° 0 mm 1 mps 742 mmHg 85%
    22:00 +16°C° 0 mm 2 mps 742 mmHg 86%
    23:00 +15°C° 0 mm 2 mps 742 mmHg 88%

    25 July, Thursday

    Time Temperature Precipitation Wind Pressure Humidity
    00:00 +15°C° 0 mm 2 mps 742 mmHg 89%
    01:00 +15°C° 0 mm 2 mps 742 mmHg 90%
    02:00 +14°C° 0 mm 2 mps 742 mmHg 92%
    03:00 +14°C° 0 mm 2 mps 743 mmHg 92%
    04:00 +14°C° 0 mm 2 mps 743 mmHg 91%
    05:00 +14°C° 0 mm 2 mps 743 mmHg 91%
    06:00 +16°C° 0 mm 2 mps 743 mmHg 84%
    07:00 +18°C° 0 mm 2 mps 743 mmHg 77%
    08:00 +20°C° 0 mm 2 mps 743 mmHg 69%
    09:00 +23°C° 0 mm 2 mps 743 mmHg 62%
    10:00 +24°C° 0 mm 3 mps 744 mmHg 56%
    11:00 +26°C° 0 mm 3 mps 744 mmHg 49%
    12:00 +26°C° 0 mm 3 mps 743 mmHg 48%
    13:00 +27°C° 0 mm 3 mps 743 mmHg 46%
    14:00 +27°C° 0 mm 3 mps 743 mmHg 44%
    15:00 +27°C° 0 mm 2 mps 743 mmHg 48%
    16:00 +27°C° 0 mm 2 mps 743 mmHg 52%
    17:00 +27°C° 0 mm 2 mps 743 mmHg 56%
    18:00 +25°C° 0 mm 2 mps 743 mmHg 64%
    19:00 +23°C° 0 mm 2 mps 743 mmHg 71%
    20:00 +20°C° 0 mm 2 mps 743 mmHg 79%
    21:00 +19°C° 0 mm 2 mps 743 mmHg 84%
    22:00 +18°C° 0 mm 2 mps 743 mmHg 89%
    23:00 +17°C° 0 mm 2 mps 743 mmHg 94%
    Show more